Time,TemperatureF,DewpointF,PressureIn,WindDirection,WindDirectionDegrees,WindSpeedMPH,WindSpeedGustMPH,Humidity,HourlyPrecipIn,Conditions,Clouds,dailyrainin,SolarRadiationWatts/m^2,SoftwareType,DateUTC
2013-08-17 00:02:00,62.2,59.2,30.25,NNW,334,0.0,2.0,90,0.00,,,0.00,0,Wunderground v.1.15,2013-08-17 04:02:00,
2013-08-17 00:07:00,62.1,59.4,30.25,NNW,334,0.0,2.0,91,0.00,,,0.00,0,Wunderground v.1.15,2013-08-17 04:07:00,
2013-08-17 00:12:00,61.9,59.2,30.25,NNW,334,0.0,2.0,91,0.00,,,0.00,0,Wunderground v.1.15,2013-08-17 04:12:00,
2013-08-17 00:17:00,61.8,59.1,30.25,NNW,333,0.0,2.0,91,0.00,,,0.00,0,Wunderground v.1.15,2013-08-17 04:17:00,
2013-08-17 00:27:00,61.6,59.3,30.25,NNW,333,0.0,2.0,92,0.00,,,0.00,0,Wunderground v.1.15,2013-08-17 04:27:00,
2013-08-17 00:32:00,61.5,59.2,30.25,NNW,338,0.0,2.0,92,0.00,,,0.00,0,Wunderground v.1.15,2013-08-17 04:32:00,
2013-08-17 00:37:00,61.4,59.1,30.24,NNW,338,0.0,2.0,92,0.00,,,0.00,0,Wunderground v.1.15,2013-08-17 04:37:00,
2013-08-17 00:42:00,61.2,58.9,30.24,NNW,338,0.0,2.0,92,0.00,,,0.00,0,Wunderground v.1.15,2013-08-17 04:42:00,
2013-08-17 00:47:00,61.1,58.8,30.24,NNW,338,0.0,2.0,92,0.00,,,0.00,0,Wunderground v.1.15,2013-08-17 04:47:00,
2013-08-17 00:57:00,60.7,58.4,30.25,NNW,339,0.0,2.0,92,0.00,,,0.00,0,Wunderground v.1.15,2013-08-17 04:57:00,
2013-08-17 01:06:00,60.4,58.1,30.25,NNW,339,0.0,2.0,92,0.00,,,0.00,0,Wunderground v.1.15,2013-08-17 05:06:00,
2013-08-17 01:11:00,60.2,57.9,30.25,NNW,339,0.0,2.0,92,0.00,,,0.00,0,Wunderground v.1.15,2013-08-17 05:11:00,
2013-08-17 01:16:00,60.0,58.0,30.25,NNW,339,0.0,2.0,93,0.00,,,0.00,0,Wunderground v.1.15,2013-08-17 05:16:00,
2013-08-17 01:21:00,59.9,57.9,30.25,NNW,339,0.0,2.0,93,0.00,,,0.00,0,Wunderground v.1.15,2013-08-17 05:21:00,
2013-08-17 01:31:00,59.7,57.7,30.25,NNW,339,0.0,2.0,93,0.00,,,0.00,0,Wunderground v.1.15,2013-08-17 05:31:00,
2013-08-17 01:36:00,59.7,57.7,30.25,NNW,339,0.0,2.0,93,0.00,,,0.00,0,Wunderground v.1.15,2013-08-17 05:36:00,
2013-08-17 01:41:00,59.6,57.6,30.25,NNW,339,0.0,2.0,93,0.00,,,0.00,0,Wunderground v.1.15,2013-08-17 05:41:00,
2013-08-17 01:46:00,59.6,57.6,30.25,NNW,339,0.0,2.0,93,0.00,,,0.00,0,Wunderground v.1.15,2013-08-17 05:46:00,
2013-08-17 01:51:00,59.5,57.5,30.25,NNW,339,0.0,2.0,93,0.00,,,0.00,0,Wunderground v.1.15,2013-08-17 05:51:00,
2013-08-17 01:56:00,59.4,57.4,30.25,NNW,339,0.0,2.0,93,0.00,,,0.00,0,Wunderground v.1.15,2013-08-17 05:56:00,
2013-08-17 02:01:00,59.4,57.7,30.25,NNW,339,0.0,2.0,94,0.00,,,0.00,0,Wunderground v.1.15,2013-08-17 06:01:00,
2013-08-17 02:11:00,59.4,57.7,30.25,NNW,339,0.0,2.0,94,0.00,,,0.00,0,Wunderground v.1.15,2013-08-17 06:11:00,
2013-08-17 02:16:00,59.3,57.6,30.25,NNW,339,0.0,2.0,94,0.00,,,0.00,0,Wunderground v.1.15,2013-08-17 06:16:00,
2013-08-17 02:26:00,59.1,57.4,30.25,NNW,339,0.0,2.0,94,0.00,,,0.00,0,Wunderground v.1.15,2013-08-17 06:26:00,
2013-08-17 02:36:00,59.1,57.4,30.24,NNW,339,0.0,2.0,94,0.00,,,0.00,0,Wunderground v.1.15,2013-08-17 06:36:00,
2013-08-17 02:41:00,59.1,57.4,30.24,NNW,339,0.0,2.0,94,0.00,,,0.00,0,Wunderground v.1.15,2013-08-17 06:41:00,
2013-08-17 02:46:00,59.1,57.4,30.24,NNW,339,0.0,2.0,94,0.00,,,0.00,0,Wunderground v.1.15,2013-08-17 06:46:00,
2013-08-17 02:51:00,59.0,57.3,30.24,NNW,339,0.0,2.0,94,0.00,,,0.00,0,Wunderground v.1.15,2013-08-17 06:51:00,
2013-08-17 03:05:00,58.8,57.1,30.23,NNW,339,0.0,2.0,94,0.00,,,0.00,0,Wunderground v.1.15,2013-08-17 07:05:00,
2013-08-17 03:10:00,58.7,57.0,30.23,NNW,339,0.0,2.0,94,0.00,,,0.00,0,Wunderground v.1.15,2013-08-17 07:10:00,
2013-08-17 03:20:00,58.7,57.0,30.23,NNW,339,0.0,2.0,94,0.00,,,0.00,0,Wunderground v.1.15,2013-08-17 07:20:00,
2013-08-17 03:25:00,58.7,57.0,30.23,NNW,339,1.0,1.0,94,0.00,,,0.00,0,Wunderground v.1.15,2013-08-17 07:25:00,
2013-08-17 03:30:00,58.6,56.9,30.24,NNW,339,0.0,2.0,94,0.00,,,0.00,0,Wunderground v.1.15,2013-08-17 07:30:00,
2013-08-17 03:35:00,58.6,56.9,30.24,NNW,339,0.0,2.0,94,0.00,,,0.00,0,Wunderground v.1.15,2013-08-17 07:35:00,
2013-08-17 03:40:00,58.4,56.7,30.24,NNW,339,0.0,2.0,94,0.00,,,0.00,0,Wunderground v.1.15,2013-08-17 07:40:00,
2013-08-17 03:50:00,58.3,56.6,30.24,NNW,339,0.0,2.0,94,0.00,,,0.00,0,Wunderground v.1.15,2013-08-17 07:50:00,
2013-08-17 03:55:00,58.3,56.9,30.24,NNW,339,0.0,2.0,95,0.00,,,0.00,0,Wunderground v.1.15,2013-08-17 07:55:00,
2013-08-17 04:05:00,58.1,56.7,30.24,NNW,339,0.0,2.0,95,0.00,,,0.00,0,Wunderground v.1.15,2013-08-17 08:05:00,
2013-08-17 04:15:00,58.1,56.7,30.25,NNW,339,0.0,2.0,95,0.00,,,0.00,0,Wunderground v.1.15,2013-08-17 08:15:00,
2013-08-17 04:20:00,58.1,56.7,30.25,NNW,339,0.0,2.0,95,0.00,,,0.00,0,Wunderground v.1.15,2013-08-17 08:20:00,
2013-08-17 04:25:00,58.1,56.7,30.25,NNW,339,0.0,2.0,95,0.00,,,0.00,0,Wunderground v.1.15,2013-08-17 08:25:00,
2013-08-17 04:30:00,58.1,56.7,30.25,NNW,339,0.0,2.0,95,0.00,,,0.00,0,Wunderground v.1.15,2013-08-17 08:30:00,
2013-08-17 04:35:00,58.1,56.7,30.24,NNW,339,0.0,2.0,95,0.00,,,0.00,0,Wunderground v.1.15,2013-08-17 08:35:00,
2013-08-17 04:40:00,58.0,56.3,30.24,NNW,339,0.0,2.0,94,0.00,,,0.00,0,Wunderground v.1.15,2013-08-17 08:40:00,
2013-08-17 04:45:00,58.0,56.3,30.25,NNW,339,0.0,2.0,94,0.00,,,0.00,0,Wunderground v.1.15,2013-08-17 08:45:00,
2013-08-17 04:55:00,58.0,56.3,30.25,NNW,339,0.0,2.0,94,0.00,,,0.00,0,Wunderground v.1.15,2013-08-17 08:55:00,
2013-08-17 05:00:00,57.9,56.2,30.25,NNW,339,0.0,2.0,94,0.00,,,0.00,0,Wunderground v.1.15,2013-08-17 09:00:00,
2013-08-17 05:05:00,57.9,56.2,30.25,NNW,339,0.0,2.0,94,0.00,,,0.00,0,Wunderground v.1.15,2013-08-17 09:05:00,
2013-08-17 05:10:00,58.0,56.3,30.25,NNW,339,0.0,2.0,94,0.00,,,0.00,0,Wunderground v.1.15,2013-08-17 09:10:00,
2013-08-17 05:20:00,57.9,56.2,30.25,NNW,339,0.0,2.0,94,0.00,,,0.00,0,Wunderground v.1.15,2013-08-17 09:20:00,
2013-08-17 05:25:00,57.8,55.8,30.25,NNW,339,0.0,2.0,93,0.00,,,0.00,0,Wunderground v.1.15,2013-08-17 09:25:00,
2013-08-17 05:30:00,57.8,55.8,30.24,NNW,339,0.0,2.0,93,0.00,,,0.00,0,Wunderground v.1.15,2013-08-17 09:30:00,
2013-08-17 05:35:00,57.7,56.0,30.25,NNW,339,0.0,2.0,94,0.00,,,0.00,0,Wunderground v.1.15,2013-08-17 09:35:00,
2013-08-17 05:40:00,57.8,56.1,30.25,NNW,339,0.0,2.0,94,0.00,,,0.00,0,Wunderground v.1.15,2013-08-17 09:40:00,
2013-08-17 05:45:00,57.9,56.2,30.24,NNW,339,0.0,2.0,94,0.00,,,0.00,0,Wunderground v.1.15,2013-08-17 09:45:00,
2013-08-17 05:55:00,58.2,56.8,30.25,NNW,339,0.0,2.0,95,0.00,,,0.00,0,Wunderground v.1.15,2013-08-17 09:55:00,
2013-08-17 06:00:00,58.3,56.6,30.25,NNW,342,0.0,2.0,94,0.00,,,0.00,0,Wunderground v.1.15,2013-08-17 10:00:00,
2013-08-17 06:05:00,58.4,56.7,30.25,NNW,342,0.0,2.0,94,0.00,,,0.00,0,Wunderground v.1.15,2013-08-17 10:05:00,
2013-08-17 06:10:00,58.4,57.0,30.25,NNW,342,0.0,2.0,95,0.00,,,0.00,0,Wunderground v.1.15,2013-08-17 10:10:00,
2013-08-17 06:15:00,58.6,56.9,30.25,NNW,342,0.0,2.0,94,0.00,,,0.00,0,Wunderground v.1.15,2013-08-17 10:15:00,
2013-08-17 06:20:00,58.6,56.9,30.25,NNW,342,0.0,2.0,94,0.00,,,0.00,0,Wunderground v.1.15,2013-08-17 10:20:00,
2013-08-17 06:30:00,58.5,56.5,30.26,NNW,342,0.0,2.0,93,0.00,,,0.00,0,Wunderground v.1.15,2013-08-17 10:30:00,
2013-08-17 06:40:00,58.2,56.2,30.26,NNW,342,0.0,2.0,93,0.00,,,0.00,7,Wunderground v.1.15,2013-08-17 10:40:00,
2013-08-17 06:50:00,57.9,55.9,30.27,NNW,342,0.0,2.0,93,0.00,,,0.00,14,Wunderground v.1.15,2013-08-17 10:50:00,
2013-08-17 07:00:00,57.6,55.6,30.27,NW,321,1.0,1.0,93,0.00,,,0.00,21,Wunderground v.1.15,2013-08-17 11:00:00,
2013-08-17 07:05:00,57.5,55.5,30.27,NNW,346,1.0,2.0,93,0.00,,,0.00,30,Wunderground v.1.15,2013-08-17 11:05:00,
2013-08-17 07:10:00,57.3,55.3,30.27,North,360,1.0,1.0,93,0.00,,,0.00,39,Wunderground v.1.15,2013-08-17 11:10:00,
2013-08-17 07:15:00,57.4,55.7,30.27,North,360,1.0,2.0,94,0.00,,,0.00,32,Wunderground v.1.15,2013-08-17 11:15:00,
2013-08-17 07:20:00,57.4,55.7,30.27,North,360,0.0,2.0,94,0.00,,,0.00,33,Wunderground v.1.15,2013-08-17 11:20:00,
2013-08-17 07:30:00,57.6,55.6,30.28,North,360,0.0,2.0,93,0.00,,,0.00,51,Wunderground v.1.15,2013-08-17 11:30:00,
2013-08-17 07:35:00,57.8,55.8,30.28,North,360,0.0,2.0,93,0.00,,,0.00,70,Wunderground v.1.15,2013-08-17 11:35:00,
2013-08-17 07:40:00,58.0,56.0,30.27,North,360,0.0,2.0,93,0.00,,,0.00,83,Wunderground v.1.15,2013-08-17 11:40:00,
2013-08-17 07:45:00,58.0,56.0,30.28,NNW,336,0.0,3.0,93,0.00,,,0.00,116,Wunderground v.1.15,2013-08-17 11:45:00,
2013-08-17 07:55:00,58.5,56.5,30.28,NNW,342,1.0,2.0,93,0.00,,,0.00,69,Wunderground v.1.15,2013-08-17 11:55:00,
2013-08-17 08:00:00,58.6,56.3,30.28,NNW,344,0.0,2.0,92,0.00,,,0.00,58,Wunderground v.1.15,2013-08-17 12:00:00,
2013-08-17 08:05:00,58.7,56.1,30.28,NNW,344,0.0,2.0,91,0.00,,,0.00,39,Wunderground v.1.15,2013-08-17 12:05:00,
2013-08-17 08:10:00,58.8,56.2,30.28,NNW,344,0.0,2.0,91,0.00,,,0.00,44,Wunderground v.1.15,2013-08-17 12:10:00,
2013-08-17 08:15:00,58.8,56.2,30.28,NNW,344,0.0,2.0,91,0.00,,,0.00,51,Wunderground v.1.15,2013-08-17 12:15:00,
2013-08-17 08:25:00,58.9,56.3,30.28,NNW,344,0.0,2.0,91,0.00,,,0.00,123,Wunderground v.1.15,2013-08-17 12:25:00,
2013-08-17 08:35:00,59.1,56.5,30.28,NNW,344,1.0,2.0,91,0.00,,,0.00,130,Wunderground v.1.15,2013-08-17 12:35:00,
2013-08-17 08:45:00,59.9,57.0,30.29,NNW,344,0.0,2.0,90,0.00,,,0.00,156,Wunderground v.1.15,2013-08-17 12:45:00,
2013-08-17 08:50:00,60.4,57.1,30.29,North,360,0.0,2.0,89,0.00,,,0.00,169,Wunderground v.1.15,2013-08-17 12:50:00,
2013-08-17 08:55:00,60.7,57.1,30.29,NNE,26,0.0,2.0,88,0.00,,,0.00,151,Wunderground v.1.15,2013-08-17 12:55:00,
2013-08-17 09:05:00,61.3,57.4,30.29,ESE,104,1.0,2.0,87,0.00,,,0.00,214,Wunderground v.1.15,2013-08-17 13:05:00,
2013-08-17 09:10:00,61.7,57.8,30.29,ESE,104,0.0,2.0,87,0.00,,,0.00,366,Wunderground v.1.15,2013-08-17 13:10:00,
2013-08-17 09:15:00,62.2,58.3,30.29,SE,128,1.0,2.0,87,0.00,,,0.00,206,Wunderground v.1.15,2013-08-17 13:15:00,
2013-08-17 09:20:00,62.5,58.3,30.29,SE,128,1.0,2.0,86,0.00,,,0.00,371,Wunderground v.1.15,2013-08-17 13:20:00,
2013-08-17 09:25:00,62.8,58.5,30.29,SE,128,1.0,2.0,86,0.00,,,0.00,237,Wunderground v.1.15,2013-08-17 13:25:00,
2013-08-17 09:35:00,63.6,58.0,30.29,ESE,113,3.0,3.0,82,0.00,,,0.00,257,Wunderground v.1.15,2013-08-17 13:35:00,
2013-08-17 09:45:00,64.4,58.1,30.29,ESE,109,1.0,2.0,80,0.00,,,0.00,209,Wunderground v.1.15,2013-08-17 13:45:00,
2013-08-17 09:50:00,64.5,57.5,30.29,SSE,157,3.0,5.0,78,0.00,,,0.00,179,Wunderground v.1.15,2013-08-17 13:50:00,
2013-08-17 10:00:00,64.8,57.4,30.29,ESE,107,4.0,4.0,77,0.00,,,0.00,220,Wunderground v.1.15,2013-08-17 14:00:00,
2013-08-17 10:05:00,65.0,58.0,30.30,East,82,3.0,4.0,78,0.00,,,0.00,232,Wunderground v.1.15,2013-08-17 14:05:00,
2013-08-17 10:10:00,65.3,57.5,30.30,SE,144,3.0,4.0,76,0.00,,,0.00,236,Wunderground v.1.15,2013-08-17 14:10:00,
2013-08-17 10:16:00,65.6,58.2,30.30,SE,138,4.0,4.0,77,0.00,,,0.00,418,Wunderground v.1.15,2013-08-17 14:16:00,
2013-08-17 10:21:00,66.1,58.3,30.30,ESE,121,4.0,4.0,76,0.00,,,0.00,490,Wunderground v.1.15,2013-08-17 14:21:00,
2013-08-17 10:26:00,66.6,58.4,30.30,ESE,118,5.0,5.0,75,0.00,,,0.00,445,Wunderground v.1.15,2013-08-17 14:26:00,
2013-08-17 10:35:00,67.1,58.5,30.30,SE,136,5.0,8.0,74,0.00,,,0.00,485,Wunderground v.1.15,2013-08-17 14:35:00,
2013-08-17 10:40:00,67.4,59.2,30.30,ESE,106,6.0,6.0,75,0.00,,,0.00,468,Wunderground v.1.15,2013-08-17 14:40:00,
2013-08-17 10:51:00,68.5,59.9,30.30,ESE,111,4.0,7.0,74,0.00,,,0.00,694,Wunderground v.1.15,2013-08-17 14:51:00,
2013-08-17 10:56:00,69.1,60.1,30.29,SE,131,4.0,7.0,73,0.00,,,0.00,707,Wunderground v.1.15,2013-08-17 14:56:00,
2013-08-17 11:06:00,70.0,60.2,30.29,East,98,5.0,8.0,71,0.00,,,0.00,824,Wunderground v.1.15,2013-08-17 15:06:00,
2013-08-17 11:11:00,70.2,59.6,30.29,ESE,119,5.0,5.0,69,0.00,,,0.00,798,Wunderground v.1.15,2013-08-17 15:11:00,
2013-08-17 11:16:00,70.6,59.5,30.29,South,173,5.0,8.0,68,0.00,,,0.00,682,Wunderground v.1.15,2013-08-17 15:16:00,
2013-08-17 11:21:00,70.8,59.7,30.29,ESE,121,6.0,7.0,68,0.00,,,0.00,707,Wunderground v.1.15,2013-08-17 15:21:00,
2013-08-17 11:30:00,71.2,59.3,30.29,East,90,6.0,6.0,66,0.00,,,0.00,545,Wunderground v.1.15,2013-08-17 15:30:00,
2013-08-17 11:35:00,71.4,59.4,30.29,ESE,113,6.0,6.0,66,0.00,,,0.00,501,Wunderground v.1.15,2013-08-17 15:35:00,
2013-08-17 11:45:00,72.2,58.9,30.29,SE,140,5.0,5.0,63,0.00,,,0.00,520,Wunderground v.1.15,2013-08-17 15:45:00,
2013-08-17 11:55:00,72.3,58.1,30.29,East,100,6.0,8.0,61,0.00,,,0.00,417,Wunderground v.1.15,2013-08-17 15:55:00,
2013-08-17 12:05:00,71.8,56.7,30.29,ESE,116,9.0,12.0,59,0.00,,,0.00,299,Wunderground v.1.15,2013-08-17 16:05:00,
2013-08-17 12:15:00,72.2,57.5,30.29,SE,134,7.0,9.0,60,0.00,,,0.00,650,Wunderground v.1.15,2013-08-17 16:15:00,
2013-08-17 12:20:00,72.4,58.2,30.28,ENE,64,7.0,7.0,61,0.00,,,0.00,638,Wunderground v.1.15,2013-08-17 16:20:00,
2013-08-17 12:30:00,72.6,58.4,30.28,ENE,74,5.0,5.0,61,0.00,,,0.00,378,Wunderground v.1.15,2013-08-17 16:30:00,
2013-08-17 12:40:00,72.1,58.4,30.29,SE,126,4.0,6.0,62,0.00,,,0.00,290,Wunderground v.1.15,2013-08-17 16:40:00,
2013-08-17 12:50:00,72.4,57.7,30.28,SE,124,7.0,10.0,60,0.00,,,0.00,294,Wunderground v.1.15,2013-08-17 16:50:00,
2013-08-17 12:55:00,72.2,57.1,30.28,SE,129,8.0,11.0,59,0.00,,,0.00,322,Wunderground v.1.15,2013-08-17 16:55:00,
2013-08-17 13:00:00,72.1,57.0,30.28,SSE,150,9.0,9.0,59,0.00,,,0.00,302,Wunderground v.1.15,2013-08-17 17:00:00,
2013-08-17 13:05:00,72.1,57.4,30.28,SE,136,8.0,9.0,60,0.00,,,0.00,294,Wunderground v.1.15,2013-08-17 17:05:00,
2013-08-17 13:10:00,72.2,56.6,30.28,SE,131,8.0,8.0,58,0.00,,,0.00,253,Wunderground v.1.15,2013-08-17 17:10:00,
2013-08-17 13:15:00,72.3,56.7,30.28,SE,134,8.0,10.0,58,0.00,,,0.00,244,Wunderground v.1.15,2013-08-17 17:15:00,
2013-08-17 13:20:00,72.2,57.1,30.28,SE,145,8.0,8.0,59,0.00,,,0.00,213,Wunderground v.1.15,2013-08-17 17:20:00,
2013-08-17 13:25:00,72.2,57.1,30.28,SSW,205,7.0,8.0,59,0.00,,,0.00,241,Wunderground v.1.15,2013-08-17 17:25:00,
2013-08-17 13:35:00,72.0,57.8,30.28,SSE,157,7.0,8.0,61,0.00,,,0.00,318,Wunderground v.1.15,2013-08-17 17:35:00,
2013-08-17 13:40:00,72.1,57.9,30.28,SSE,161,6.0,7.0,61,0.00,,,0.00,302,Wunderground v.1.15,2013-08-17 17:40:00,
2013-08-17 13:50:00,72.4,58.2,30.28,SSE,153,5.0,6.0,61,0.00,,,0.00,283,Wunderground v.1.15,2013-08-17 17:50:00,
2013-08-17 13:55:00,72.5,58.3,30.28,SSE,149,5.0,6.0,61,0.00,,,0.00,302,Wunderground v.1.15,2013-08-17 17:55:00,
2013-08-17 14:00:00,72.4,57.7,30.28,East,96,6.0,6.0,60,0.00,,,0.00,299,Wunderground v.1.15,2013-08-17 18:00:00,
2013-08-17 14:05:00,72.3,57.2,30.28,SSE,153,6.0,6.0,59,0.00,,,0.00,387,Wunderground v.1.15,2013-08-17 18:05:00,
2013-08-17 14:15:00,72.5,57.8,30.27,East,98,6.0,6.0,60,0.00,,,0.00,371,Wunderground v.1.15,2013-08-17 18:15:00,
2013-08-17 14:25:00,72.7,58.0,30.27,SSE,147,7.0,8.0,60,0.00,,,0.00,316,Wunderground v.1.15,2013-08-17 18:25:00,
2013-08-17 14:30:00,72.8,58.6,30.27,SE,134,7.0,7.0,61,0.00,,,0.00,338,Wunderground v.1.15,2013-08-17 18:30:00,
2013-08-17 14:40:00,72.7,58.5,30.27,ESE,113,6.0,9.0,61,0.00,,,0.00,439,Wunderground v.1.15,2013-08-17 18:40:00,
2013-08-17 14:45:00,72.6,58.8,30.26,East,84,7.0,7.0,62,0.00,,,0.00,427,Wunderground v.1.15,2013-08-17 18:45:00,
2013-08-17 14:50:00,73.0,59.2,30.26,ESE,115,6.0,7.0,62,0.00,,,0.00,401,Wunderground v.1.15,2013-08-17 18:50:00,
2013-08-17 14:55:00,73.1,58.4,30.26,ESE,112,5.0,8.0,60,0.00,,,0.00,475,Wunderground v.1.15,2013-08-17 18:55:00,
2013-08-17 15:05:00,73.4,59.1,30.25,East,92,7.0,7.0,61,0.00,,,0.00,381,Wunderground v.1.15,2013-08-17 19:05:00,
2013-08-17 15:15:00,73.5,58.8,30.25,SE,141,3.0,6.0,60,0.00,,,0.00,427,Wunderground v.1.15,2013-08-17 19:15:00,
2013-08-17 15:20:00,74.1,59.3,30.25,ESE,105,4.0,9.0,60,0.00,,,0.00,617,Wunderground v.1.15,2013-08-17 19:20:00,
2013-08-17 15:25:00,74.0,58.3,30.25,SE,138,7.0,9.0,58,0.00,,,0.00,559,Wunderground v.1.15,2013-08-17 19:25:00,
2013-08-17 15:35:00,73.8,58.1,30.25,ESE,113,8.0,10.0,58,0.00,,,0.00,520,Wunderground v.1.15,2013-08-17 19:35:00,
2013-08-17 15:40:00,74.0,58.8,30.25,East,95,8.0,10.0,59,0.00,,,0.00,594,Wunderground v.1.15,2013-08-17 19:40:00,
2013-08-17 15:45:00,74.4,59.1,30.25,East,92,6.0,8.0,59,0.00,,,0.00,443,Wunderground v.1.15,2013-08-17 19:45:00,
2013-08-17 15:50:00,73.9,59.1,30.25,SE,140,6.0,8.0,60,0.00,,,0.00,461,Wunderground v.1.15,2013-08-17 19:50:00,
2013-08-17 15:55:00,74.2,59.4,30.25,SE,145,8.0,8.0,60,0.00,,,0.00,378,Wunderground v.1.15,2013-08-17 19:55:00,
2013-08-17 16:05:00,74.8,60.4,30.24,SE,127,4.0,10.0,61,0.00,,,0.00,371,Wunderground v.1.15,2013-08-17 20:05:00,
2013-08-17 16:10:00,74.5,60.2,30.24,East,97,6.0,6.0,61,0.00,,,0.00,336,Wunderground v.1.15,2013-08-17 20:10:00,
2013-08-17 16:15:00,74.4,60.1,30.24,ESE,119,8.0,8.0,61,0.00,,,0.00,425,Wunderground v.1.15,2013-08-17 20:15:00,
2013-08-17 16:20:00,74.4,60.5,30.24,South,180,7.0,7.0,62,0.00,,,0.00,418,Wunderground v.1.15,2013-08-17 20:20:00,
2013-08-17 16:25:00,74.4,61.0,30.24,SSE,167,6.0,7.0,63,0.00,,,0.00,330,Wunderground v.1.15,2013-08-17 20:25:00,
2013-08-17 16:30:00,74.5,61.1,30.24,ESE,110,6.0,10.0,63,0.00,,,0.00,267,Wunderground v.1.15,2013-08-17 20:30:00,
2013-08-17 16:40:00,74.3,61.3,30.24,ESE,122,6.0,7.0,64,0.00,,,0.00,153,Wunderground v.1.15,2013-08-17 20:40:00,
2013-08-17 16:45:00,74.5,61.1,30.24,SE,128,5.0,7.0,63,0.00,,,0.00,142,Wunderground v.1.15,2013-08-17 20:45:00,
2013-08-17 16:50:00,74.2,60.8,30.24,SE,129,7.0,8.0,63,0.00,,,0.00,167,Wunderground v.1.15,2013-08-17 20:50:00,
2013-08-17 16:55:00,74.2,60.8,30.24,ESE,111,8.0,9.0,63,0.00,,,0.00,176,Wunderground v.1.15,2013-08-17 20:55:00,
2013-08-17 17:00:00,74.2,60.8,30.24,ESE,105,7.0,9.0,63,0.00,,,0.00,190,Wunderground v.1.15,2013-08-17 21:00:00,
2013-08-17 17:10:00,74.3,60.9,30.25,SE,140,6.0,6.0,63,0.00,,,0.00,163,Wunderground v.1.15,2013-08-17 21:10:00,
2013-08-17 17:15:00,74.6,61.6,30.25,ESE,105,4.0,6.0,64,0.00,,,0.00,158,Wunderground v.1.15,2013-08-17 21:15:00,
2013-08-17 17:20:00,74.5,62.0,30.25,ESE,105,3.0,3.0,65,0.00,,,0.00,163,Wunderground v.1.15,2013-08-17 21:20:00,
2013-08-17 17:25:00,74.5,61.1,30.25,SE,144,4.0,4.0,63,0.00,,,0.00,167,Wunderground v.1.15,2013-08-17 21:25:00,
2013-08-17 17:30:00,74.4,60.5,30.25,SSE,148,5.0,12.0,62,0.00,,,0.00,176,Wunderground v.1.15,2013-08-17 21:30:00,
2013-08-17 17:40:00,74.0,60.6,30.25,East,93,7.0,7.0,63,0.00,,,0.00,163,Wunderground v.1.15,2013-08-17 21:40:00,
2013-08-17 17:45:00,73.9,60.5,30.25,ESE,112,6.0,7.0,63,0.00,,,0.00,171,Wunderground v.1.15,2013-08-17 21:45:00,
2013-08-17 17:50:00,73.8,60.4,30.25,ESE,114,6.0,6.0,63,0.00,,,0.00,169,Wunderground v.1.15,2013-08-17 21:50:00,
2013-08-17 17:55:00,73.9,61.0,30.25,East,93,6.0,6.0,64,0.00,,,0.00,153,Wunderground v.1.15,2013-08-17 21:55:00,
2013-08-17 18:05:00,73.9,61.4,30.24,ESE,113,5.0,5.0,65,0.00,,,0.00,109,Wunderground v.1.15,2013-08-17 22:05:00,
2013-08-17 18:15:00,73.9,61.4,30.24,ESE,118,5.0,6.0,65,0.00,,,0.00,97,Wunderground v.1.15,2013-08-17 22:15:00,
2013-08-17 18:20:00,73.5,61.0,30.24,SE,133,5.0,8.0,65,0.00,,,0.00,86,Wunderground v.1.15,2013-08-17 22:20:00,
2013-08-17 18:25:00,73.6,61.1,30.25,SE,143,5.0,8.0,65,0.00,,,0.00,62,Wunderground v.1.15,2013-08-17 22:25:00,
2013-08-17 18:30:00,73.7,61.2,30.24,East,101,5.0,5.0,65,0.00,,,0.00,62,Wunderground v.1.15,2013-08-17 22:30:00,
2013-08-17 18:40:00,73.4,61.3,30.24,East,96,4.0,4.0,66,0.00,,,0.00,58,Wunderground v.1.15,2013-08-17 22:40:00,
2013-08-17 18:45:00,73.2,61.6,30.24,ESE,114,4.0,4.0,67,0.00,,,0.00,51,Wunderground v.1.15,2013-08-17 22:45:00,
2013-08-17 18:50:00,73.1,61.5,30.24,East,89,3.0,3.0,67,0.00,,,0.00,47,Wunderground v.1.15,2013-08-17 22:50:00,
2013-08-17 19:00:00,73.0,61.8,30.24,ESE,119,3.0,4.0,68,0.00,,,0.00,37,Wunderground v.1.15,2013-08-17 23:00:00,
2013-08-17 19:05:00,72.9,61.3,30.25,SE,134,3.0,4.0,67,0.00,,,0.00,30,Wunderground v.1.15,2013-08-17 23:05:00,
2013-08-17 19:15:00,72.7,61.5,30.25,SE,142,6.0,8.0,68,0.00,,,0.00,25,Wunderground v.1.15,2013-08-17 23:15:00,
2013-08-17 19:20:00,72.7,61.5,30.25,SE,142,6.0,6.0,68,0.00,,,0.00,18,Wunderground v.1.15,2013-08-17 23:20:00,
2013-08-17 19:25:00,72.6,61.4,30.25,SE,126,5.0,7.0,68,0.00,,,0.00,12,Wunderground v.1.15,2013-08-17 23:25:00,
2013-08-17 19:30:00,72.5,61.7,30.25,SE,136,5.0,5.0,69,0.00,,,0.00,9,Wunderground v.1.15,2013-08-17 23:30:00,
2013-08-17 19:35:00,72.4,61.7,30.25,SE,146,5.0,5.0,69,0.00,,,0.00,7,Wunderground v.1.15,2013-08-17 23:35:00,
2013-08-17 19:40:00,72.2,61.5,30.25,ESE,113,6.0,6.0,69,0.00,,,0.00,5,Wunderground v.1.15,2013-08-17 23:40:00,
2013-08-17 19:50:00,71.9,61.6,30.25,SSE,156,5.0,5.0,70,0.00,,,0.00,0,Wunderground v.1.15,2013-08-17 23:50:00,
2013-08-17 19:55:00,71.9,61.6,30.25,SE,144,5.0,5.0,70,0.00,,,0.00,0,Wunderground v.1.15,2013-08-17 23:55:00,
2013-08-17 20:00:00,71.8,61.5,30.25,SE,143,5.0,5.0,70,0.00,,,0.00,0,Wunderground v.1.15,2013-08-18 00:00:00,
2013-08-17 20:05:00,71.7,61.4,30.25,SE,127,4.0,6.0,70,0.00,,,0.00,0,Wunderground v.1.15,2013-08-18 00:05:00,
2013-08-17 20:10:00,71.5,61.6,30.25,SE,130,5.0,5.0,71,0.00,,,0.00,0,Wunderground v.1.15,2013-08-18 00:10:00,
2013-08-17 20:20:00,71.3,61.8,30.25,SE,134,4.0,6.0,72,0.00,,,0.00,0,Wunderground v.1.15,2013-08-18 00:20:00,
2013-08-17 20:25:00,71.1,61.6,30.25,SE,126,5.0,6.0,72,0.00,,,0.00,0,Wunderground v.1.15,2013-08-18 00:25:00,
2013-08-17 20:30:00,70.9,61.4,30.25,SE,129,4.0,4.0,72,0.00,,,0.00,0,Wunderground v.1.15,2013-08-18 00:30:00,
2013-08-17 20:35:00,70.8,61.7,30.26,SE,132,4.0,4.0,73,0.00,,,0.00,0,Wunderground v.1.15,2013-08-18 00:35:00,
2013-08-17 20:40:00,70.8,61.7,30.26,SE,141,3.0,4.0,73,0.00,,,0.00,0,Wunderground v.1.15,2013-08-18 00:40:00,
2013-08-17 20:50:00,70.8,61.7,30.26,SE,135,4.0,4.0,73,0.00,,,0.00,0,Wunderground v.1.15,2013-08-18 00:50:00,
2013-08-17 20:55:00,70.8,61.7,30.26,SE,130,3.0,4.0,73,0.00,,,0.00,0,Wunderground v.1.15,2013-08-18 00:55:00,
2013-08-17 21:00:00,70.7,62.0,30.26,ESE,115,2.0,2.0,74,0.00,,,0.00,0,Wunderground v.1.15,2013-08-18 01:00:00,
2013-08-17 21:05:00,70.5,62.2,30.26,ESE,109,2.0,2.0,75,0.00,,,0.00,0,Wunderground v.1.15,2013-08-18 01:05:00,
2013-08-17 21:10:00,70.3,62.4,30.26,ESE,109,1.0,2.0,76,0.00,,,0.00,0,Wunderground v.1.15,2013-08-18 01:10:00,
2013-08-17 21:15:00,70.2,62.3,30.27,ESE,108,1.0,2.0,76,0.00,,,0.00,0,Wunderground v.1.15,2013-08-18 01:15:00,
2013-08-17 21:25:00,70.0,62.5,30.27,ESE,108,0.0,2.0,77,0.00,,,0.00,0,Wunderground v.1.15,2013-08-18 01:25:00,
2013-08-17 21:30:00,69.9,62.7,30.27,ESE,111,0.0,2.0,78,0.00,,,0.00,0,Wunderground v.1.15,2013-08-18 01:30:00,
2013-08-17 21:35:00,69.7,62.9,30.27,ESE,111,1.0,2.0,79,0.00,,,0.00,0,Wunderground v.1.15,2013-08-18 01:35:00,
2013-08-17 21:40:00,69.5,62.7,30.27,ESE,111,1.0,2.0,79,0.00,,,0.00,0,Wunderground v.1.15,2013-08-18 01:40:00,
2013-08-17 21:45:00,69.3,62.9,30.28,ESE,107,1.0,2.0,80,0.00,,,0.00,0,Wunderground v.1.15,2013-08-18 01:45:00,
2013-08-17 21:55:00,69.0,63.3,30.27,East,99,1.0,2.0,82,0.00,,,0.00,0,Wunderground v.1.15,2013-08-18 01:55:00,
2013-08-17 22:00:00,68.8,63.1,30.27,East,100,1.0,2.0,82,0.00,,,0.00,0,Wunderground v.1.15,2013-08-18 02:00:00,
2013-08-17 22:05:00,68.5,63.1,30.27,East,100,1.0,2.0,83,0.00,,,0.00,0,Wunderground v.1.15,2013-08-18 02:05:00,
2013-08-17 22:10:00,68.4,63.4,30.27,East,100,1.0,2.0,84,0.00,,,0.00,0,Wunderground v.1.15,2013-08-18 02:10:00,
2013-08-17 22:15:00,68.3,63.3,30.27,ESE,123,1.0,5.0,84,0.00,,,0.00,0,Wunderground v.1.15,2013-08-18 02:15:00,
2013-08-17 22:20:00,68.2,63.2,30.27,ESE,118,1.0,2.0,84,0.00,,,0.00,0,Wunderground v.1.15,2013-08-18 02:20:00,
2013-08-17 22:25:00,68.1,63.4,30.27,ESE,113,1.0,2.0,85,0.00,,,0.00,0,Wunderground v.1.15,2013-08-18 02:25:00,
2013-08-17 22:30:00,67.9,63.2,30.26,ESE,107,1.0,3.0,85,0.00,,,0.00,0,Wunderground v.1.15,2013-08-18 02:30:00,
2013-08-17 22:35:00,67.9,63.2,30.26,SE,135,2.0,3.0,85,0.00,,,0.00,0,Wunderground v.1.15,2013-08-18 02:35:00,
2013-08-17 22:40:00,67.9,63.2,30.26,SE,135,1.0,1.0,85,0.00,,,0.00,0,Wunderground v.1.15,2013-08-18 02:40:00,
2013-08-17 22:45:00,67.9,63.6,30.27,SE,135,0.0,2.0,86,0.00,,,0.00,0,Wunderground v.1.15,2013-08-18 02:45:00,
2013-08-17 22:50:00,67.9,63.9,30.27,SE,135,0.0,2.0,87,0.00,,,0.00,0,Wunderground v.1.15,2013-08-18 02:50:00,
2013-08-17 23:00:00,67.8,63.8,30.27,SE,135,0.0,2.0,87,0.00,,,0.00,0,Wunderground v.1.15,2013-08-18 03:00:00,
2013-08-17 23:05:00,67.7,63.7,30.26,SE,135,0.0,2.0,87,0.00,,,0.00,0,Wunderground v.1.15,2013-08-18 03:05:00,
2013-08-17 23:10:00,67.6,63.6,30.26,SE,135,1.0,2.0,87,0.00,,,0.00,0,Wunderground v.1.15,2013-08-18 03:10:00,
2013-08-17 23:15:00,67.5,63.5,30.26,SE,135,0.0,2.0,87,0.00,,,0.00,0,Wunderground v.1.15,2013-08-18 03:15:00,
2013-08-17 23:20:00,67.4,63.4,30.26,SE,128,1.0,1.0,87,0.00,,,0.00,0,Wunderground v.1.15,2013-08-18 03:20:00,
2013-08-17 23:30:00,67.2,63.2,30.26,ESE,116,1.0,1.0,87,0.00,,,0.00,0,Wunderground v.1.15,2013-08-18 03:30:00,
2013-08-17 23:35:00,67.2,63.2,30.26,ESE,116,1.0,2.0,87,0.00,,,0.00,0,Wunderground v.1.15,2013-08-18 03:35:00,
2013-08-17 23:40:00,67.2,63.2,30.26,ESE,115,1.0,2.0,87,0.00,,,0.00,0,Wunderground v.1.15,2013-08-18 03:40:00,
2013-08-17 23:45:00,67.2,63.2,30.26,ESE,115,1.0,2.0,87,0.00,,,0.00,0,Wunderground v.1.15,2013-08-18 03:45:00,
2013-08-17 23:50:00,67.1,63.1,30.26,ESE,106,1.0,2.0,87,0.00,,,0.00,0,Wunderground v.1.15,2013-08-18 03:50:00,
2013-08-17 23:55:00,67.1,63.1,30.26,ESE,106,1.0,2.0,87,0.00,,,0.00,0,Wunderground v.1.15,2013-08-18 03:55:00,